CST,Max TemperatureF,Mean TemperatureF,Min TemperatureF,Max Dew PointF,MeanDew PointF,Min DewpointF,Max Humidity, Mean Humidity, Min Humidity, Max Sea Level PressureIn, Mean Sea Level PressureIn, Min Sea Level PressureIn, Max VisibilityMiles, Mean VisibilityMiles, Min VisibilityMiles, Max Wind SpeedMPH, Mean Wind SpeedMPH, Max Gust SpeedMPH,PrecipitationIn, CloudCover, Events, WindDirDegrees
2013-1-1,21,16,9,19,11,4,93,79,60,30.34,30.27,30.16,10,9,5,16,8,,0.01,5,Snow,342
2013-1-2,32,20,7,23,15,4,92,79,69,30.29,30.24,30.16,10,8,4,13,7,,0.00,3,Snow,216
2013-1-3,34,28,19,24,21,18,92,79,64,30.45,30.39,30.28,10,9,6,9,5,,0.00,5,,295
2013-1-4,39,27,15,26,20,12,92,78,60,30.44,30.35,30.27,10,8,2,17,7,,0.00,0,,193
2013-1-5,42,35,28,32,27,20,79,72,62,30.26,30.19,30.08,10,10,10,20,11,29,0.00,4,,218
2013-1-6,37,29,21,21,19,16,86,72,48,30.42,30.33,30.21,10,9,6,16,9,21,0.00,1,,274
2013-1-7,48,36,24,27,22,18,77,63,39,30.30,30.18,30.05,10,10,10,23,11,29,0.00,0,,180
2013-1-8,54,43,32,33,29,26,88,63,40,30.21,30.05,29.98,10,10,10,21,11,30,0.00,0,,190
2013-1-9,51,40,28,33,29,25,85,67,48,30.44,30.36,30.24,10,10,8,10,3,,0.00,0,,34
2013-1-10,48,42,37,48,42,28,100,92,56,30.32,29.92,29.73,10,3,0,15,9,22,0.49,8,Fog-Rain,120
2013-1-11,57,52,48,49,45,29,100,79,38,29.75,29.68,29.57,10,8,2,23,13,32,0.01,5,Rain,187
2013-1-12,50,36,19,29,17,9,79,58,32,30.11,30.00,29.79,10,10,8,21,15,26,0.00,6,,325
2013-1-13,26,19,12,8,6,3,71,61,44,30.35,30.25,30.11,10,10,10,16,13,25,0.00,1,,317
2013-1-14,32,24,16,12,10,4,74,61,33,30.49,30.43,30.39,10,10,10,14,8,,0.00,0,,51
2013-1-15,30,22,14,12,9,6,77,61,35,30.44,30.33,30.22,10,10,9,6,2,,0.00,3,,123
2013-1-16,45,30,15,27,19,10,80,65,43,30.21,30.13,30.06,10,10,10,15,8,21,0.00,1,,216
2013-1-17,46,36,27,28,26,24,92,71,46,30.50,30.42,30.24,10,10,8,14,10,,0.00,0,,332
2013-1-18,55,42,30,30,27,24,82,59,34,30.43,30.23,30.04,10,10,10,31,14,37,0.00,0,,189
2013-1-19,60,46,30,31,28,24,79,52,26,30.27,30.08,29.99,10,10,10,23,15,29,0.00,0,,251
2013-1-20,36,28,19,25,11,8,72,51,33,30.43,30.34,30.29,10,10,10,15,9,,0.00,0,Snow,16
2013-1-21,21,16,10,11,5,-1,84,62,38,30.48,30.44,30.40,10,10,9,16,7,,0.00,5,,345
2013-1-22,28,21,14,10,6,3,64,55,41,30.44,30.36,30.29,10,10,10,10,7,,0.00,0,,81
2013-1-23,46,30,15,21,15,8,77,58,36,30.43,30.28,30.19,10,10,10,15,5,,0.00,0,,352
2013-1-24,26,18,10,13,6,0,71,53,40,30.52,30.37,30.21,10,10,10,15,10,21,0.00,3,,73
2013-1-25,45,32,19,20,15,9,69,52,34,30.27,30.22,30.14,10,10,10,9,4,,0.00,2,,282
2013-1-26,55,42,30,27,22,21,72,49,27,30.30,30.21,30.09,10,10,9,15,6,,0.00,1,Rain-Snow,126
2013-1-27,59,49,39,54,44,32,88,79,67,30.07,29.88,29.75,10,9,5,23,15,37,0.07,7,Rain,172
2013-1-28,73,65,57,59,56,53,94,77,51,29.87,29.78,29.65,10,9,5,24,14,36,0.00,6,,193
2013-1-29,66,50,35,61,44,34,100,91,80,29.68,29.57,29.45,10,5,0,24,15,32,1.42,7,Fog-Rain-Thunderstorm,338
2013-1-30,34,28,19,32,22,13,96,81,62,30.01,29.74,29.52,10,5,1,31,17,39,0.03,8,Rain-Snow,313
2013-1-31,24,16,8,18,8,0,82,70,57,30.52,30.24,30.00,10,10,9,23,10,30,0.00,3,Snow,308